Flag for Brazil Weather past 2 weeks in São Luis, Maranhão, Brazil

Now
81 °F

Passing clouds.


Feels Like: 85 °F
Forecast: 78 / 87 °F
Wind: 5 mph from Northeast

Location: Sao Luiz Aeroporto

Current Time: Jul 7, 2015 at 10:08:00 PM

Latest Report: Jul 7, 2015 at 9:00 PM


Visibility: N/A

Pressure: 29.89 "Hg

Humidity: 79%

Dew point: 73 °F

Location of São LuisLocation

Historic Weather in São Luis — Graph

°F

São Luis temperature yesterday

Maximum temperature yesterday: 88 °F (at 1:00 PM)
Minimum temperature yesterday: 77 °F (at 12:00 AM)
Average temperature yesterday: 81 °F

Past Weeks' High & Low Weather Summary

 TemperatureHumidityPressure
High90 °F (Jul 1, 2:00 PM)89% (Jun 23, 2:00 AM)30.07 "Hg (Jun 23, 2:00 AM)
Low75 °F (Jun 25, 10:00 PM)24% (Jun 25, 11:00 PM)29.83 "Hg (Jul 2, 3:00 PM)
Average81 °F75%29.94 "Hg
* Reported Jun 22 8:00 PM — Jul 7 8:00 PM, São Luis, Weather by CustomWeather, © 2015

Note: Actual official high and low records may vary slightly from our data, if they occured in-between our weather recording intervals... More about our weather records

Advertising

São Luis weather history for previous 24 hours

 ConditionsComfort  
Time TempWeatherWind HumidityBarometerVisibility
8:00 PM
Tue, Jul 7
81 °FClear.9 mph79%29.89 "Hg10 mi
7:00 PM81 °FPassing clouds.13 mph79%29.86 "HgN/A
6:00 PM82 °FPassing clouds.13 mph70%29.86 "HgN/A
5:00 PM84 °FScattered clouds.15 mph66%29.83 "HgN/A
4:00 PM88 °FScattered clouds.10 mph59%29.83 "HgN/A
3:00 PM88 °FScattered clouds.10 mph59%29.83 "HgN/A
2:00 PM88 °FScattered clouds.7 mph55%29.86 "HgN/A
1:00 PM88 °FPartly sunny.8 mph55%29.86 "HgN/A
12:00 PM88 °FPartly sunny.7 mph55%29.89 "HgN/A
11:00 AM86 °FPartly sunny.12 mph62%29.92 "HgN/A
10:00 AM81 °FPartly sunny.8 mph79%29.92 "HgN/A
9:00 AM81 °FPartly sunny.14 mph79%29.92 "HgN/A
8:00 AM81 °FScattered clouds.8 mph79%29.92 "HgN/A
7:00 AM79 °FScattered clouds.2 mph84%29.89 "HgN/A
6:00 AM79 °FPassing clouds.3 mph84%29.89 "HgN/A
5:00 AM79 °FPartly cloudy.5 mph84%29.86 "HgN/A
4:00 AM79 °FPartly cloudy.5 mph84%29.86 "HgN/A
3:00 AM79 °FPassing clouds.5 mph84%29.86 "HgN/A
2:00 AM79 °FPassing clouds.5 mph84%29.86 "HgN/A
1:00 AM79 °FPassing clouds.3 mph84%29.89 "HgN/A
12:00 AM79 °FPassing clouds.5 mph84%29.89 "HgN/A
11:00 PM
Mon, Jul 6
79 °FPassing clouds.5 mph84%29.92 "HgN/A
10:00 PM79 °FPassing clouds.3 mph84%29.89 "HgN/A
Weather by CustomWeather, © 2015

See weather overviewHow to use our weather pages